Location: Catstown
(52.4386°N, 7.2633°W)
Time: 16:27:33
(UTC+00:00)

Meteor 2-19 Rocket - Pass Details

Date: 18 September 2020
Orbit: 935 x 959 km, 82.5° (Epoch: 31 October)

Event Time Altitude Azimuth Distance (km) Brightness Sun altitude
Rises 21:40:10 0° 348° (NNW) 3,644 8.3 -26.3°
Reaches altitude 10° 21:42:41 10° 348° (NNW) 2,691 7.5 -26.5°
Maximum altitude 21:48:51 83° 262° (W) 962 4.4 -27.2°
Enters shadow 21:49:45 66° 188° (S) 1,030 4.4 -27.3°
